星链-11318 (STARLINK-11318)

导读 | 星芒AI

STARLINK-11318 是 SpaceX 星链计划中的一颗低轨道通信卫星,属于第54组星链卫星。该卫星于2022年发射,旨在为全球用户提供高速互联网服务。它运行在约550公里高的近地轨道,采用先进推进系统和激光通信技术,以提高网络连接的稳定性和效率。星链项目由数千颗卫星组成,致力于改善偏远地区的网络覆盖。

基本信息
目录编号:
61252
目录名称:
STARLINK-11318
国际标识:
2024-175K
轨道中心:
EARTH
卫星名称:
星链-11318
卫星全名:
星链-11318 (STARLINK-11318)
卫星状态:
在轨 (已飞行446 天)
发射日期:
2024-09-25 UTC
国别 :
美国 (US)
星等 :
--
轨道信息
数据来源 国际轨道数据
星历时间: 2025-12-14T23:08:48+0800
1天前
查看轨道信息
半长轴: 6737.827km
偏心率: 0.000092
轨道倾角: 53.159°
近地点辐角 78.910°
升交点赤经 115.823°
平近点角 281.202°
近地点: 359.072km
远地点: 360.312km
周期: 91.736分钟
每日圈数: 15.697231
详细信息
固有亮度:
5
最大亮度:
2.5
卫星平台:
Starlink V1.0
覆盖范围:
全球
运营商:
太空探索技术公司
运营商所在国:
美国
制造商(研发单位):
太空探索技术公司
制造商所在国:
美国
使用方式:
暂无
卫星简介
Starlink 计划是 SpaceX 推出的全球卫星互联网项目,通过发射低轨道卫星,为全球尤其是偏远地区提供高速、低延迟的互联网服务。自 2019 年起,Starlink 已部署数千颗卫星,旨在缩小全球数字鸿沟,推动互联网普及。该项目还为军事、航空等行业提供通信支持,带来广泛经济效益。
2D轨道图
3D轨道图
轨道高度分析图
轨道倾角分析图
轨道综合分析图
查看轨道综合分析图